When you browse on this site, cookies collect data to enhance your experience and personalize the content and advertising you see.
Visit our Privacy Policy to learn more. By continuing to use the site, you agree to this use of cookies and data.
  • In Österreich
  • Länderverzeichnis
  • Für 7 Tage
  • Wassertemperatur
  • Satellitenkarten
  • Wetterkarte
  • News
  • Widgets
  • user-avatar
    Anmelden

    Stündliche Wetter Godzieszki

    Heute, 17 Dezember, Montag

    Zeit Temperatur Niederschläge Wind Luftdruck Luftfeuchtigkeit
    00:00 -4°C° 0 mm 3 m/S 753 mmHg 80%
    01:00 -4°C° 0 mm 3 m/S 753 mmHg 81%
    02:00 -4°C° 0 mm 3 m/S 753 mmHg 81%
    03:00 -4°C° 0 mm 3 m/S 753 mmHg 80%
    04:00 -4°C° 0 mm 3 m/S 753 mmHg 80%
    05:00 -3°C° 0 mm 2 m/S 753 mmHg 81%
    06:00 -3°C° 0 mm 2 m/S 753 mmHg 82%
    07:00 -4°C° 0 mm 2 m/S 753 mmHg 84%
    08:00 -3°C° 0 mm 2 m/S 753 mmHg 83%
    09:00 -3°C° 0 mm 2 m/S 754 mmHg 81%
    10:00 -1°C° 0 mm 1 m/S 754 mmHg 80%
    11:00 0°C° 0 mm 1 m/S 754 mmHg 78%
    12:00 0°C° 0 mm 1 m/S 755 mmHg 76%
    13:00 -2°C° 0 mm 2 m/S 755 mmHg 76%
    14:00 -2°C° 0 mm 2 m/S 755 mmHg 79%
    15:00 -1°C° 0 mm 1 m/S 755 mmHg 82%
    16:00 -1°C° 0 mm 1 m/S 756 mmHg 85%
    17:00 -1°C° 0 mm 1 m/S 756 mmHg 85%
    18:00 -1°C° 0 mm 1 m/S 757 mmHg 86%
    19:00 -1°C° 0 mm 1 m/S 757 mmHg 86%
    20:00 -1°C° 0 mm 1 m/S 757 mmHg 87%
    21:00 -1°C° 0 mm 1 m/S 758 mmHg 88%
    22:00 -3°C° 0 mm 2 m/S 758 mmHg 88%
    23:00 0°C° 0 mm 1 m/S 758 mmHg 89%

    Morgen, 18 Dezember, Dienstag

    Zeit Temperatur Niederschläge Wind Luftdruck Luftfeuchtigkeit
    00:00 0°C° 0 mm 1 m/S 758 mmHg 90%
    01:00 0°C° 0 mm 1 m/S 759 mmHg 91%
    02:00 0°C° 0 mm 1 m/S 759 mmHg 91%
    03:00 0°C° 0 mm 1 m/S 759 mmHg 91%
    04:00 0°C° 0 mm 1 m/S 759 mmHg 91%
    05:00 +1°C° 0 mm 1 m/S 759 mmHg 92%
    06:00 +1°C° 0 mm 1 m/S 759 mmHg 92%
    07:00 +1°C° 0 mm 1 m/S 759 mmHg 92%
    08:00 +1°C° 0 mm 1 m/S 759 mmHg 92%
    09:00 -1°C° 0 mm 2 m/S 759 mmHg 92%
    10:00 +1°C° 0 mm 2 m/S 760 mmHg 92%
    11:00 +1°C° 0 mm 2 m/S 760 mmHg 92%
    12:00 +1°C° 0 mm 2 m/S 760 mmHg 92%
    13:00 +2°C° 0 mm 2 m/S 759 mmHg 92%
    14:00 +2°C° 0 mm 1 m/S 760 mmHg 93%
    15:00 +2°C° 0 mm 1 m/S 760 mmHg 93%
    16:00 +2°C° 0 mm 1 m/S 760 mmHg 94%
    17:00 +2°C° 0 mm 1 m/S 760 mmHg 94%
    18:00 +1°C° 0 mm 1 m/S 760 mmHg 93%
    19:00 +1°C° 0 mm 1 m/S 760 mmHg 93%
    20:00 +1°C° 0 mm 1 m/S 760 mmHg 93%
    21:00 -1°C° 0 mm 2 m/S 759 mmHg 93%
    22:00 -1°C° 0 mm 2 m/S 759 mmHg 92%
    23:00 -1°C° 0 mm 2 m/S 759 mmHg 92%

    übermorgen, 19 Dezember, Mittwoch

    Zeit Temperatur Niederschläge Wind Luftdruck Luftfeuchtigkeit
    00:00 -1°C° 0 mm 2 m/S 759 mmHg 92%
    01:00 -1°C° 0 mm 2 m/S 759 mmHg 91%
    02:00 -1°C° 0 mm 2 m/S 759 mmHg 91%
    03:00 -2°C° 0 mm 3 m/S 759 mmHg 90%
    04:00 -2°C° 0 mm 3 m/S 758 mmHg 90%
    05:00 -3°C° 0 mm 4 m/S 758 mmHg 89%
    06:00 -3°C° 0 mm 4 m/S 758 mmHg 89%
    07:00 -3°C° 0 mm 4 m/S 758 mmHg 89%
    08:00 -3°C° 0 mm 4 m/S 758 mmHg 87%
    09:00 -2°C° 0 mm 5 m/S 758 mmHg 84%
    10:00 -2°C° 0 mm 5 m/S 758 mmHg 82%
    11:00 -2°C° 0 mm 5 m/S 757 mmHg 80%
    12:00 -1°C° 0 mm 5 m/S 757 mmHg 78%
    13:00 -1°C° 0 mm 4 m/S 756 mmHg 75%
    14:00 -1°C° 0 mm 4 m/S 756 mmHg 76%
    15:00 -2°C° 0 mm 4 m/S 756 mmHg 77%
    16:00 -2°C° 0 mm 4 m/S 755 mmHg 78%
    17:00 -2°C° 0 mm 4 m/S 755 mmHg 78%
    18:00 -2°C° 0 mm 4 m/S 755 mmHg 77%
    19:00 -2°C° 0 mm 4 m/S 755 mmHg 77%
    20:00 -2°C° 0 mm 4 m/S 755 mmHg 77%
    21:00 -2°C° 0 mm 4 m/S 755 mmHg 77%
    22:00 -2°C° 0 mm 5 m/S 754 mmHg 77%
    23:00 -2°C° 0 mm 4 m/S 754 mmHg 77%

    20 Dezember, Donnerstag

    Zeit Temperatur Niederschläge Wind Luftdruck Luftfeuchtigkeit
    00:00 -2°C° 0 mm 4 m/S 754 mmHg 77%
    01:00 -2°C° 0 mm 4 m/S 754 mmHg 76%
    02:00 -2°C° 0 mm 4 m/S 754 mmHg 76%
    03:00 -2°C° 0 mm 4 m/S 754 mmHg 76%
    04:00 -2°C° 0 mm 4 m/S 753 mmHg 76%
    05:00 -2°C° 0 mm 4 m/S 753 mmHg 75%
    06:00 -1°C° 0 mm 3 m/S 753 mmHg 75%
    07:00 -1°C° 0 mm 3 m/S 753 mmHg 75%
    08:00 -1°C° 0 mm 3 m/S 753 mmHg 74%
    09:00 -2°C° 0 mm 4 m/S 753 mmHg 74%
    10:00 -2°C° 0 mm 4 m/S 753 mmHg 73%
    11:00 -2°C° 0 mm 4 m/S 753 mmHg 73%
    12:00 -1°C° 0 mm 3 m/S 753 mmHg 74%
    13:00 0°C° 0 mm 3 m/S 753 mmHg 74%
    14:00 -1°C° 0 mm 3 m/S 753 mmHg 76%
    15:00 -1°C° 0 mm 3 m/S 753 mmHg 78%
    16:00 -1°C° 0 mm 3 m/S 753 mmHg 80%
    17:00 -1°C° 0.1 mm 3 m/S 753 mmHg 82%
    18:00 -1°C° 0.1 mm 3 m/S 753 mmHg 84%
    19:00 -1°C° 0.1 mm 3 m/S 753 mmHg 86%
    20:00 -1°C° 0.2 mm 3 m/S 753 mmHg 88%
    21:00 -2°C° 0.2 mm 4 m/S 753 mmHg 90%
    22:00 -2°C° 0.2 mm 4 m/S 753 mmHg 92%
    23:00 -1°C° 0.1 mm 4 m/S 753 mmHg 92%

    21 Dezember, Freitag

    Zeit Temperatur Niederschläge Wind Luftdruck Luftfeuchtigkeit
    00:00 0°C° 0.1 mm 3 m/S 753 mmHg 92%
    01:00 0°C° 0.1 mm 3 m/S 753 mmHg 92%
    02:00 -1°C° 0 mm 3 m/S 752 mmHg 92%
    03:00 -1°C° 0 mm 3 m/S 752 mmHg 92%
    04:00 -1°C° 0 mm 3 m/S 752 mmHg 92%
    05:00 -1°C° 0 mm 3 m/S 752 mmHg 92%
    06:00 -1°C° 0 mm 3 m/S 751 mmHg 92%
    07:00 -1°C° 0 mm 3 m/S 751 mmHg 92%
    08:00 -1°C° 0 mm 4 m/S 751 mmHg 91%
    09:00 -1°C° 0 mm 4 m/S 751 mmHg 90%
    10:00 0°C° 0 mm 4 m/S 750 mmHg 89%
    11:00 0°C° 0 mm 4 m/S 750 mmHg 89%
    12:00 0°C° 0 mm 4 m/S 749 mmHg 88%
    13:00 0°C° 0 mm 4 m/S 749 mmHg 88%
    14:00 0°C° 0.1 mm 4 m/S 748 mmHg 89%
    15:00 0°C° 0.1 mm 4 m/S 748 mmHg 89%
    16:00 0°C° 0.1 mm 4 m/S 747 mmHg 90%
    17:00 0°C° 0.1 mm 4 m/S 746 mmHg 89%
    18:00 0°C° 0.1 mm 5 m/S 746 mmHg 89%
    19:00 0°C° 0.1 mm 5 m/S 745 mmHg 88%
    20:00 0°C° 0.9 mm 5 m/S 744 mmHg 89%
    21:00 0°C° 0.9 mm 5 m/S 743 mmHg 90%
    22:00 0°C° 0.9 mm 5 m/S 743 mmHg 91%
    23:00 +1°C° 0.8 mm 6 m/S 742 mmHg 90%

    22 Dezember, Samstag

    Zeit Temperatur Niederschläge Wind Luftdruck Luftfeuchtigkeit
    00:00 +2°C° 0.8 mm 6 m/S 742 mmHg 90%
    01:00 +3°C° 0.8 mm 7 m/S 742 mmHg 89%
    02:00 +3°C° 0.3 mm 7 m/S 742 mmHg 88%
    03:00 +3°C° 0.3 mm 7 m/S 742 mmHg 88%
    04:00 +3°C° 0.3 mm 7 m/S 742 mmHg 87%
    05:00 +3°C° 0.2 mm 7 m/S 742 mmHg 87%
    06:00 +3°C° 0.2 mm 7 m/S 742 mmHg 87%
    07:00 +3°C° 0.2 mm 6 m/S 743 mmHg 88%
    08:00 +3°C° 0.3 mm 6 m/S 743 mmHg 89%
    09:00 +3°C° 0.3 mm 6 m/S 743 mmHg 90%
    10:00 +3°C° 0.3 mm 6 m/S 743 mmHg 91%
    11:00 +3°C° 0.8 mm 6 m/S 743 mmHg 91%
    12:00 +3°C° 0.8 mm 6 m/S 742 mmHg 91%
    13:00 +3°C° 0.8 mm 6 m/S 742 mmHg 91%
    14:00 +4°C° 0.7 mm 6 m/S 743 mmHg 90%
    15:00 +4°C° 0.7 mm 7 m/S 743 mmHg 88%
    16:00 +4°C° 0.7 mm 7 m/S 743 mmHg 86%
    17:00 +4°C° 0.1 mm 7 m/S 744 mmHg 86%
    18:00 +4°C° 0.1 mm 7 m/S 744 mmHg 86%
    19:00 +4°C° 0.1 mm 7 m/S 745 mmHg 86%
    20:00 +4°C° 0.1 mm 7 m/S 745 mmHg 86%
    21:00 +4°C° 0.1 mm 7 m/S 746 mmHg 86%
    22:00 +4°C° 0.1 mm 6 m/S 746 mmHg 86%
    23:00 +4°C° 0.3 mm 6 m/S 746 mmHg 87%
    Mehr zeigen